Location: Dana
(41.8364°N, 106.7042°W)
Time: 02:05:57
(UTC+00:00)

Altair - Pass Details

Date: 16 May 2026
Orbit: 1501 x 1682 km, 47.2° (Epoch: 6 June)

Event Time Altitude Azimuth Distance (km) Brightness Sun altitude
Rises 16:29:11 0° 292° (WNW) 4,919 9.8 50.4°
Reaches altitude 10° 16:32:20 10° 293° (WNW) 3,940 9.4 50.9°
Maximum altitude 16:42:34 82° 22° (NNE) 1,697 8.8 52.6°
Drops below altitude 10° 16:52:42 10° 111° (ESE) 3,905 10.4 54.3°
Sets 16:55:49 0° 112° (ESE) 4,874 10.7 54.8°
